Location: Mahannah Oil Field
(37.4664°N, 96.6003°W)
Time: 07:54:08
(UTC+00:00)

Courier 1B - Pass Details

Date: 30 January 2021
Orbit: 962 x 1209 km, 28.3° (Epoch: 02 March)

Event Time Altitude Azimuth Distance (km) Brightness Sun altitude
Rises 04:26:54 0° 247° (WSW) 3,902 11.0 -54.8°
Enters shadow 04:27:23 - 246° (WSW) 3,738 10.8 -54.9°
Reaches altitude 10° 04:29:55 10° 239° (WSW) 2,905 - -55.3°
Maximum altitude 04:36:19 37° 175° (S) 1,536 - -56.5°
Drops below altitude 10° 04:42:23 10° 110° (ESE) 2,754 - -57.5°
Sets 04:45:10 0° 102° (ESE) 3,678 - -58.0°
